Lapse_Rate
6.7 6.7 6.7 6.7 7.1 7.4 7.5 7.6 7.5 7.5 6.8 7.0 7.1 6.9 6.5 6.3 6.5 6.7 7.0 7.3 6.9 6.9 7.0 6.8 6.9 6.9 6.8 6.7 6.9 7.0 6.7 6.7 7.2 7.8 7.0 6.8 7.6 7.4 6.9 7.0 7.0 6.9 7.0 7.2 7.3
6.8 6.9 6.8 6.9 7.1 7.4 7.4 7.7 7.6 7.8 7.4 7.0 6.9 7.0 6.4 6.2 6.4 6.8 7.4 7.5 7.1 7.1 7.0 7.1 7.0 7.0 6.9 7.1 6.8 6.7 6.6 7.0 7.1 7.4 7.2 7.1 7.4 7.3 6.7 6.7 6.7 6.8 6.9 7.1 7.3
6.7 7.0 6.9 7.0 7.1 7.4 7.7 7.6 7.7 7.9 7.6 6.6 6.9 7.1 6.5 6.3 6.6 6.9 7.2 7.2 7.2 7.1 7.2 7.2 7.0 7.1 6.8 7.0 6.8 6.4 6.4 6.6 7.0 7.0 6.9 7.1 7.3 7.1 6.6 6.7 6.8 6.9 6.8 7.0 7.0
6.7 6.9 7.1 7.1 7.1 7.3 7.7 7.6 7.4 7.2 7.0 6.9 7.1 7.0 6.7 6.7 6.3 6.9 7.1 7.0 7.2 7.1 7.1 7.2 6.7 7.0 6.5 6.3 6.3 6.3 6.4 6.6 6.6 6.8 7.4 7.0 7.0 6.9 6.9 6.7 6.7 6.9 7.2 7.2 7.2
6.6 6.9 7.2 7.1 7.1 7.3 7.5 7.6 7.4 7.1 6.9 6.9 6.9 6.4 6.4 6.9 6.8 6.9 7.1 6.9 7.2 7.2 7.4 7.4 7.1 6.7 6.9 6.9 6.8 6.6 6.5 6.6 6.5 6.6 6.8 7.2 6.9 6.5 6.8 6.6 6.7 7.0 7.3 7.3 7.3
6.7 6.9 7.2 7.1 7.1 7.2 7.4 7.4 7.2 6.9 6.8 6.5 6.6 6.6 6.3 6.9 6.9 6.8 6.9 7.0 7.4 7.7 7.7 7.4 7.3 6.9 7.1 7.2 7.0 6.5 6.9 6.7 6.6 6.6 6.6 6.7 6.7 6.5 6.5 6.5 6.4 6.7 7.2 7.3 7.3
6.4 6.8 7.1 7.1 7.0 7.0 7.2 7.3 7.4 7.0 6.7 6.6 6.3 6.6 6.5 6.4 6.6 6.8 6.9 6.9 7.3 7.6 7.7 7.5 6.8 6.8 6.8 7.0 6.8 7.0 6.8 6.6 6.4 6.5 6.6 6.6 6.3 6.4 6.6 6.7 6.5 6.5 6.8 6.9 6.9
6.0 6.8 7.1 7.2 7.1 6.9 6.9 6.9 7.2 7.1 6.9 6.9 6.9 6.8 6.4 6.5 6.7 6.7 7.0 7.1 7.4 7.3 7.4 7.3 7.0 6.7 6.7 6.7 6.9 6.7 6.5 6.2 6.4 6.4 6.6 6.5 6.2 6.7 6.3 6.5 6.6 6.5 6.4 6.7 6.5
5.7 6.5 7.1 7.1 7.2 7.0 6.8 6.8 7.0 7.0 7.1 6.9 6.9 6.4 6.2 6.8 6.8 6.9 7.0 7.1 7.4 7.5 7.3 7.3 7.0 6.5 6.8 6.9 6.8 6.4 7.1 6.9 6.4 6.4 6.5 6.6 6.0 6.7 6.8 6.5 6.5 6.3 6.5 6.5 6.8
5.7 6.1 6.9 7.2 7.3 7.3 7.0 6.6 6.9 6.8 6.9 6.9 7.0 6.2 6.5 6.6 6.8 6.9 7.1 7.1 7.5 7.5 7.2 7.0 6.4 6.4 6.6 6.8 7.0 7.1 7.0 7.3 6.4 6.5 6.7 6.7 6.0 7.2 7.2 6.9 6.5 6.4 6.4 6.6 6.8
5.9 6.1 6.6 7.1 7.3 7.4 7.2 6.8 6.6 6.6 6.9 6.9 7.0 6.9 6.5 6.6 6.6 6.7 7.0 7.0 7.0 7.0 6.7 6.6 6.7 6.7 6.9 7.1 7.8 8.3 7.9 8.1 6.9 6.6 6.6 6.2 5.8 7.1 7.1 7.0 6.8 6.4 6.1 6.2 6.5
6.0 6.2 6.6 7.0 7.4 7.5 7.3 7.1 6.8 6.9 7.0 7.0 7.1 6.8 6.6 6.7 6.7 6.6 6.8 6.9 6.8 6.6 6.8 6.8 6.7 7.2 7.4 7.5 7.6 7.9 8.1 8.2 6.7 6.8 6.5 5.8 6.1 7.1 6.7 6.8 6.6 6.5 6.6 6.5 6.5
6.0 6.2 6.6 7.0 7.3 7.5 7.2 7.1 6.8 6.8 6.9 7.0 7.0 7.0 6.8 6.8 6.7 6.8 6.9 6.9 7.0 6.7 6.9 7.1 7.1 7.3 7.4 7.4 7.5 7.5 8.0 8.1 7.4 7.0 6.4 6.0 5.4 6.4 7.0 6.8 6.7 6.6 6.5 6.3 6.4
6.1 6.3 6.5 6.8 7.2 7.3 7.1 6.9 6.8 6.7 6.6 6.8 6.8 6.8 7.1 6.7 6.8 6.9 7.0 6.8 6.6 6.7 6.9 6.9 7.5 7.3 7.1 7.4 7.3 7.7 7.8 8.1 7.0 7.1 7.0 7.0 7.4 7.3 7.2 6.8 6.8 6.8 6.8 7.0 7.0
6.1 6.4 6.5 6.7 7.0 7.1 7.0 6.8 6.6 6.6 7.4 6.7 6.6 6.7 6.8 6.7 6.8 7.0 6.9 6.8 6.6 6.8 6.7 6.9 7.1 7.0 6.9 7.1 7.4 7.8 7.9 7.6 7.2 7.3 7.5 6.3 6.1 7.8 7.1 6.8 6.9 7.1 7.0 7.0 7.1
6.0 6.5 6.7 6.8 6.7 6.9 7.0 6.6 6.6 6.7 7.3 6.4 6.5 6.5 6.6 6.6 6.7 6.8 6.7 6.6 6.6 6.6 6.5 6.9 7.1 7.0 7.1 7.3 7.5 7.5 7.3 7.1 6.9 6.9 7.0 7.1 6.8 7.4 6.5 7.6 7.6 7.5 7.3 7.2 7.3
6.0 6.2 6.7 6.9 6.7 6.8 6.7 6.6 6.3 7.3 7.0 6.5 6.3 6.5 6.1 6.3 6.1 6.5 6.6 6.2 6.3 6.4 6.5 6.8 6.5 6.8 6.8 7.2 7.3 7.1 7.1 7.3 7.0 6.8 6.9 7.4 7.3 6.9 6.9 7.4 7.5 7.5 7.5 7.5 7.6
5.9 6.1 6.4 6.8 7.0 6.7 6.3 6.1 6.9 7.0 7.0 6.7 6.6 6.5 6.4 6.2 6.3 6.3 6.4 6.5 6.1 6.5 6.9 7.0 7.1 6.4 6.8 7.0 6.8 6.7 7.0 7.4 7.3 7.5 7.9 7.7 7.1 7.2 7.0 7.2 7.0 7.0 7.2 7.2 7.3
5.9 6.0 6.2 6.6 6.9 6.8 6.1 6.3 7.1 6.8 6.8 6.6 6.7 6.7 6.8 6.4 6.2 6.3 6.3 6.4 6.6 6.2 6.3 6.9 7.0 7.3 6.8 7.1 7.0 6.6 6.7 7.3 8.1 8.4 8.1 7.8 6.8 7.1 7.1 7.2 7.3 7.4 7.5 7.2 7.1
5.6 5.8 6.2 6.4 6.7 6.6 5.9 6.3 6.4 6.8 7.0 6.7 7.0 7.1 7.4 6.8 6.6 6.4 6.4 6.5 6.5 6.4 6.1 6.3 6.5 6.8 6.7 6.9 6.6 7.2 7.4 7.4 7.3 7.1 7.4 8.3 8.3 7.3 7.2 7.2 7.3 7.3 7.3 7.5 7.5
5.3 5.5 5.9 6.2 6.4 6.4 5.9 6.4 6.3 6.6 6.6 6.6 6.9 6.9 6.8 6.6 6.5 6.5 6.6 6.4 6.5 6.5 6.4 6.4 6.2 6.3 6.1 6.0 6.4 6.6 6.4 6.7 7.0 7.0 8.1 8.2 8.6 7.9 7.4 7.4 7.5 7.4 7.4 7.3 7.4
5.2 5.3 5.8 6.0 5.8 5.6 6.0 6.1 6.8 6.6 6.4 6.4 6.3 6.5 6.6 6.5 6.4 6.5 6.6 6.6 6.2 6.5 6.4 6.5 6.5 6.3 6.3 6.3 6.3 6.4 6.4 6.9 6.8 7.1 7.0 7.6 8.0 7.7 7.4 7.3 7.3 7.4 7.2 7.3 7.4
5.0 5.3 5.7 5.9 5.6 5.9 5.9 6.5 6.7 6.9 6.6 6.2 6.3 6.5 6.7 6.7 6.7 6.5 6.6 6.6 6.5 6.4 6.3 6.5 6.2 6.6 6.4 6.2 6.1 6.0 6.1 6.3 6.3 7.2 7.1 7.5 7.3 7.9 7.6 7.5 7.8 7.9 7.7 7.2 7.0
4.9 4.9 5.4 5.7 6.0 6.4 6.4 6.5 6.7 6.9 6.8 6.7 6.6 6.6 6.5 6.5 6.5 6.6 6.6 6.7 6.7 6.4 6.5 6.1 6.1 6.3 6.8 7.0 6.6 6.0 6.0 6.4 6.3 6.3 6.2 6.4 7.2 7.4 7.5 7.6 7.7 7.7 7.6 7.5 7.3
4.7 4.9 5.1 5.1 5.3 6.2 6.7 6.9 7.1 6.5 7.0 7.0 6.7 6.7 6.6 6.3 6.3 6.5 6.6 6.4 6.5 6.7 6.1 6.3 6.2 6.4 6.3 6.1 6.1 6.2 6.2 6.5 6.5 6.2 6.2 6.5 6.8 7.0 7.2 7.3 7.3 7.4 7.4 7.6 7.4
4.7 4.8 5.1 5.4 5.9 6.2 6.3 6.6 7.0 7.0 7.2 6.8 7.1 6.5 6.8 6.6 6.5 6.2 6.3 6.5 6.1 6.5 6.5 6.2 6.1 6.2 6.3 6.2 6.1 6.1 6.3 6.5 6.4 6.5 6.4 6.4 6.6 6.6 6.3 6.8 6.8 6.7 6.9 6.9 7.1
4.7 4.8 5.0 5.5 5.7 6.1 6.2 6.6 6.8 7.2 7.2 7.3 7.2 7.1 7.1 6.7 7.0 7.0 6.6 6.6 6.5 6.4 6.2 6.4 6.6 6.3 6.2 6.1 5.9 5.8 6.5 6.7 6.6 6.9 6.4 6.1 6.3 6.5 6.5 6.5 6.6 6.7 6.3 6.2 5.9
Wind_Speed
16 17 18 15 14 14 15 16 13 10 13 12 10 11 10 7 10 11 15 5 8 4 7 13 13 11 12 7 2 0 5 11 13 15 11 13 7 5 5 8 6 6 5 4 6
18 17 17 16 15 15 14 16 14 13 12 14 11 11 9 9 10 14 7 10 11 8 14 18 17 15 8 8 5 6 7 11 7 6 9 16 11 11 8 12 7 9 9 8 8
17 17 15 16 15 15 15 16 15 16 15 14 14 11 4 9 7 8 2 20 16 12 16 15 14 16 12 10 10 7 6 4 9 8 10 11 12 4 15 5 5 7 7 8 9
18 17 17 15 14 15 14 16 15 15 14 12 13 12 10 3 5 6 6 11 19 16 15 17 15 17 12 10 14 7 4 3 3 4 7 11 8 7 9 7 9 9 8 8 9
18 18 17 16 15 14 14 12 15 14 14 11 12 6 5 6 12 4 6 10 17 16 18 18 18 17 14 15 13 16 8 7 10 12 12 12 9 9 10 9 8 9 10 9 9
19 20 18 17 15 14 14 14 13 13 13 11 9 11 3 8 4 6 7 14 18 19 18 18 16 16 12 11 14 9 10 14 9 10 14 12 7 3 4 7 8 8 9 9 9
18 20 19 19 16 15 13 13 11 15 14 11 6 5 2 10 1 7 4 13 16 18 18 17 9 13 6 6 11 18 14 12 9 9 5 17 6 4 10 8 8 7 7 7 8
20 20 19 18 16 14 13 11 14 14 15 9 6 2 5 1 5 5 4 11 11 15 14 13 7 6 9 13 9 9 12 9 8 11 10 6 9 12 13 10 8 7 5 6 7
22 19 18 17 16 15 13 15 16 12 2 7 6 3 5 4 6 6 7 10 14 12 12 7 11 6 8 14 10 12 11 17 10 12 8 12 6 13 12 12 10 8 6 6 6
22 20 18 17 14 14 16 15 2 5 6 5 3 1 6 0 1 5 8 12 15 15 12 13 11 10 12 14 15 16 20 15 13 11 12 14 5 13 13 11 11 9 8 6 5
21 18 17 16 11 12 12 3 3 4 6 5 3 3 2 3 5 6 10 16 10 16 12 17 15 18 21 22 17 14 15 15 10 6 12 14 12 13 12 10 12 11 10 8 7
21 18 17 15 9 9 8 3 6 5 6 16 8 7 4 1 4 8 13 11 14 17 18 14 20 19 17 17 18 13 15 14 9 6 10 12 14 13 17 16 15 14 12 10 9
23 17 14 7 5 4 3 5 6 7 5 4 12 14 6 7 4 15 16 12 17 19 21 17 15 19 18 16 17 16 16 13 8 9 7 5 13 14 15 14 15 13 12 12 12
23 13 8 6 4 1 0 4 7 7 5 7 5 4 7 6 5 11 14 9 8 19 18 16 17 16 15 18 18 18 16 13 13 14 9 16 10 19 19 19 18 17 16 15 14
20 12 5 6 2 3 5 6 6 4 4 2 4 2 3 9 5 7 14 6 12 11 15 11 16 16 21 22 21 18 12 11 14 15 12 10 6 5 18 15 21 22 21 18 15
21 9 6 3 2 3 8 7 4 5 3 3 3 4 6 12 3 5 10 6 5 11 13 17 3 16 18 18 18 8 9 7 8 11 14 16 13 14 13 22 23 22 23 21 18
20 10 5 4 3 8 7 3 5 5 3 3 1 4 9 11 9 8 13 17 11 10 14 15 17 8 13 17 17 17 14 6 7 8 13 14 15 13 10 8 2 23 24 21 18
18 10 3 4 7 8 4 4 6 4 2 2 2 4 6 7 13 11 5 16 20 16 7 15 12 19 15 19 14 23 21 9 12 13 14 16 10 9 8 5 1 15 21 19 17
13 4 3 1 4 3 4 6 5 4 3 5 8 9 11 9 4 6 14 6 9 19 8 9 16 15 18 17 18 19 23 21 20 14 8 10 7 5 5 5 7 17 20 20 18
2 3 1 3 2 3 5 8 4 2 5 4 6 2 8 2 4 9 7 6 9 14 15 4 6 9 15 18 17 21 14 17 11 7 11 12 17 9 11 14 15 19 20 19 17
3 3 4 2 3 4 6 6 4 3 2 4 8 8 7 7 5 3 4 4 10 9 17 7 11 6 8 17 22 15 14 14 14 14 13 14 12 6 3 18 20 19 19 20 18
2 3 2 3 5 3 6 4 3 6 4 6 7 13 11 10 5 6 6 7 2 2 5 11 3 12 16 6 8 8 20 21 8 20 17 15 10 2 2 12 19 19 19 18 18
2 2 2 3 4 5 4 7 4 7 8 4 5 5 6 7 6 9 6 3 1 3 3 3 4 4 4 4 4 10 16 13 22 10 17 13 7 1 5 14 16 20 20 18 18
3 3 3 3 2 6 7 7 5 2 5 5 7 5 9 11 10 5 4 1 3 4 7 1 3 5 5 2 3 13 18 17 14 11 16 19 7 6 12 16 17 18 18 18 16
2 1 2 1 3 5 3 5 9 7 4 4 5 8 8 5 9 12 12 4 4 1 2 2 6 9 13 7 2 6 18 22 16 21 14 9 14 11 19 18 17 17 18 17 16
4 3 1 2 3 4 4 4 6 5 4 5 8 10 8 13 12 14 14 7 8 1 2 2 3 5 5 5 5 5 9 13 23 21 19 4 3 1 13 15 17 19 20 18 16
2 0 3 4 2 3 2 2 2 2 6 7 8 8 11 11 11 11 10 8 7 7 3 3 3 2 3 2 2 6 14 14 10 17 12 19 9 13 17 17 18 19 18 17 16
Wind_Direction
346 340 339 343 342 341 336 328 334 325 318 308 333 306 272 215 175 199 225 203 199 222 235 170 178 178 181 180 203 331 219 222 217 226 191 144 152 81 77 104 65 31 69 71 15
344 343 340 341 345 340 331 326 329 326 320 316 334 302 283 178 210 238 222 205 217 240 200 179 180 168 186 190 185 206 217 238 2 303 172 171 152 130 130 121 74 81 72 65 51
343 338 338 338 337 338 330 324 328 325 323 322 320 296 216 170 267 255 69 201 206 216 213 193 183 185 189 178 190 190 230 109 38 354 148 133 121 132 132 88 39 124 83 63 61
340 335 339 335 332 327 328 319 319 317 320 309 314 297 164 189 232 90 355 218 196 199 205 200 191 199 208 196 193 141 84 108 100 63 120 144 110 83 39 92 94 88 84 77 63
337 334 331 329 327 323 318 319 311 309 302 308 302 185 173 206 252 32 327 191 187 198 197 193 196 199 208 206 176 227 132 103 111 95 85 103 86 99 91 94 94 90 77 71 67
337 334 328 324 318 320 312 309 300 291 296 301 303 162 273 242 49 336 331 169 188 192 196 195 198 204 224 219 195 112 135 123 138 122 131 116 124 97 109 117 99 91 82 71 61
336 330 324 321 318 310 308 303 288 299 295 290 270 175 272 243 27 323 308 180 188 190 191 200 216 194 143 113 114 139 126 130 136 140 125 134 97 101 142 139 119 101 92 76 62
335 333 325 317 313 309 303 286 295 292 292 256 212 189 255 189 303 269 207 170 187 194 205 200 227 193 218 118 145 184 172 173 162 174 161 206 205 163 156 157 144 135 119 94 68
337 333 326 319 314 312 299 298 297 284 223 153 125 173 257 144 239 191 177 176 173 181 213 176 196 153 143 173 175 194 209 217 166 198 157 207 124 162 167 171 164 161 156 134 106
336 331 328 318 317 309 303 295 318 172 163 136 111 185 237 180 120 160 185 171 168 167 171 191 194 191 198 203 206 199 225 202 192 190 198 197 141 159 181 183 178 173 167 160 133
337 332 324 317 320 312 313 189 175 168 206 214 191 258 43 87 165 190 176 174 183 179 184 192 199 209 203 212 228 227 212 224 135 162 201 208 198 193 184 198 193 187 184 172 157
341 329 320 318 318 307 290 256 35 354 271 224 241 257 234 301 165 166 172 175 186 189 196 186 215 210 218 218 233 244 231 215 113 173 226 204 225 189 191 203 198 193 189 179 160
340 333 329 336 318 273 340 65 343 337 259 173 227 235 233 206 219 181 193 209 200 200 200 205 216 222 218 215 222 226 230 197 198 170 233 215 235 201 205 203 198 200 193 184 181
345 349 347 356 277 138 215 351 338 308 270 147 192 202 189 226 230 190 201 191 210 212 202 232 220 215 214 223 212 223 225 229 161 173 223 194 251 201 195 204 202 200 199 190 182
344 346 348 347 6 208 4 334 299 246 278 106 144 68 175 202 117 185 200 207 213 210 200 214 217 202 211 213 211 233 211 215 181 212 227 195 248 223 180 204 209 207 198 191 179
338 334 320 232 248 338 321 312 256 232 237 136 128 196 187 212 182 138 183 240 290 234 213 242 242 219 220 222 221 146 130 140 205 234 245 226 217 243 183 211 210 201 193 185 172
334 314 274 312 345 327 313 244 251 247 117 138 192 202 227 201 206 202 193 205 206 204 218 229 222 225 228 214 214 177 174 186 214 213 238 220 229 232 180 197 217 188 182 173 165
330 297 217 272 312 317 254 245 258 59 302 34 262 236 233 229 224 208 276 217 221 231 265 216 219 204 202 211 191 198 196 204 217 229 240 211 237 223 84 58 335 165 162 160 164
323 232 261 34 306 281 252 242 310 11 352 318 278 253 236 229 250 253 219 230 227 214 219 222 232 191 198 199 187 206 216 219 258 266 268 204 212 151 145 146 147 147 154 163 166
285 264 250 343 291 241 238 259 294 326 325 279 282 285 277 146 243 197 187 211 219 223 239 259 269 205 186 209 211 226 208 213 229 223 230 237 230 209 202 187 167 164 165 163 159
241 246 97 316 252 214 242 256 301 276 297 288 286 279 269 290 235 255 306 258 211 216 213 193 220 178 173 206 202 205 215 212 229 232 243 246 236 16 82 181 175 168 166 161 161
284 250 54 284 230 203 255 308 7 275 229 281 280 272 256 267 266 248 241 219 191 355 269 194 247 219 208 214 296 241 211 207 213 215 233 259 257 50 30 157 162 161 159 158 159
276 313 152 268 262 234 230 273 264 272 270 276 274 264 294 268 257 248 283 33 197 210 238 26 225 198 184 216 221 213 225 244 226 246 233 225 225 33 154 139 156 158 158 159 159
285 243 161 220 314 292 299 277 265 214 276 276 284 273 278 273 259 275 267 176 221 228 238 192 236 288 283 348 307 206 206 214 225 224 228 237 230 180 164 159 160 159 157 155 153
350 71 4 266 184 278 267 284 280 287 218 258 252 255 285 278 287 266 274 320 230 281 256 231 264 226 252 247 300 297 219 210 209 219 210 220 233 183 180 168 160 150 149 150 152
335 318 194 286 286 254 207 240 265 281 256 255 261 291 278 270 266 290 311 303 277 52 240 191 276 343 278 223 222 256 277 253 219 219 235 243 229 335 133 139 153 156 153 153 155
39 95 289 130 211 251 286 300 294 337 266 277 301 292 279 294 322 308 299 278 263 281 246 250 275 264 274 12 240 255 236 217 234 226 235 227 213 145 145 156 159 154 155 151 151